Погода в Тебе

Россия / Кемеровская область (Кузбасс)     53°38′33″N   88°32′58″E
темп.,
°C
ветер,
м/с
пор.,
м/с
влажн.,
%
обл.,
%
осадки,
мм/ч
давл.,
гПа
погр.,
м
5 марта, пт
пт501:00−11в2284100 0.0 102221
04:00−12в228296 0.0 102120
07:00−12вюв228388 0.0 102021
10:00−7вюв228494 0.0 101799
13:00−2ююв238397 0.0 1016316
16:00−3юз51197100 1.6 10161093
19:00−5юз41292100 3.1 10211240
22:00−6ююз21094100 0.7 10231027
6 марта, сб
сб601:00−7ю21394100 0.9 10241075
04:00−7ю21295100 0.3 1022887
07:00−7ююз21494100 1.0 1023970
10:00−5юз31285100 0.0 10221128
13:00−3зюз4127699 0.0 10201358
16:00−2зюз3137799 0.0 10171472
19:00−5юз1480100 0.0 1016158
22:00−6ю2585100 0.0 1016181
7 марта, вс
вс701:00−6ю2387100 0.0 101656
04:00−6ю2690100 0.0 1015285
07:00−6ю31293100 0.3 1016964
10:00−5юз41192100 0.8 10161002
13:00−4юз4997100 4.3 1017817
16:00−3юз4997100 2.6 1019784
19:00−4зюз3897100 6.1 1021730
22:00−6зюз2798100 0.8 1024387
8 марта, пн
пн801:00−9юз1198100 1.5 102521
04:00−10вюв1196100 0.2 102521
07:00−11в2292100 0.3 102524
10:00−7вюв2291100 0.0 1021135
13:00−1вюв1393100 0.0 1017275
16:000юв12100100 0.0 1014165
19:00−2ююв2297100 0.0 101357
22:00−4ююв2292100 0.0 101329
9 марта, вт
вт901:00−2юз31597100 0.7 10141330
04:00−2зюз61596100 1.8 10151364
07:00−4з61689100 3.4 10201444
10:00−7зюз398886 0.0 1024761
13:00−5зюз488255 0.0 10251031
16:00−5з36815 0.0 10261040
19:00−11сз009116 0.0 102721
22:00−12в229150 0.0 102621